Location: Rometta
(44.2000°N, 10.0500°E)
Time: 22:47:13
(UTC+00:00)

RESURS DK-1 - Pass Details

Date: 20 January 2021
Orbit: 557 x 560 km, 69.9° (Epoch: 03 March)

Event Time Altitude Azimuth Distance (km) Brightness Sun altitude
Rises 16:59:48 0° 230° (SW) 2,732 7.4 -8.4°
Reaches altitude 10° 17:02:10 10° 240° (WSW) 1,841 6.6 -8.8°
Maximum altitude 17:05:53 32° 304° (NW) 973 4.0 -9.5°
Drops below altitude 10° 17:09:37 10° 9° (N) 1,851 4.7 -10.1°
Enters shadow 17:11:45 - 19° (NNE) 2,651 5.5 -10.5°
